Regional Weather Roundup
Issued by NWS

Home | Current Version | Previous Version | Graphics & Text | Print | Product List | Glossary On
Versions: 1 2 3 4 5 6 7 8 9 10 11 12 13 14 15 16 17 18 19 20 21 22 23 24 25 26 27 28 29 30 31 32 33 34 35 36 37 38 39 40 41 42 43 44 45 46 47 48 49 50
000
ASUS43 KLSX 270310
RWRMO

WEATHER SUMMARY FOR MISSOURI
NATIONAL WEATHER SERVICE SPRINGFIELD MO
1000 PM CDT THU APR 26 2018

NOTE: "FAIR" INDICATES FEW OR NO CLOUDS BELOW 12,000 FEET WITH NO
       SIGNIFICANT WEATHER AND/OR OBSTRUCTIONS TO VISIBILITY.
       CURRENT SKY AND/OR WEATHER CONDITIONS ARE NOT AVAILABLE FOR
       CHILLICOTHE AND FARMINGTON.

MOZ001>031-035>038-043-044-053-054-270400-
...NORTHERN AND WESTERN MISSOURI...

CITY           SKY/WX    TMP DP  RH WIND       PRES   REMARKS
KANSAS CTY INT MOCLDY    58  43  57 W7        29.96R
KANSAS C DTWN  CLEAR     59  41  51 CALM      29.95R
LEE`S SUMMIT   CLEAR     59  40  49 SW5       29.97R
ST JOSEPH      CLEAR     60  42  51 N17       29.98R
CHILLICOTHE      N/A     52  40  63 CALM      29.94R
KIRKSVILLE     PTCLDY    56  34  43 W5        29.91S

$$
MOZ066>068-077>081-088>096-101>105-270400-
...SOUTHWEST MISSOURI...

CITY           SKY/WX    TMP DP  RH WIND       PRES   REMARKS
SPRINGFIELD    CLEAR     56  47  71 W7        29.99R
JOPLIN         CLOUDY    53  48  83 S6        30.02R
BRANSON        CLEAR     54  48  82 CALM      30.01S

$$
MOZ032>034-039>042-045>050-055>058-069>072-270400-
...CENTRAL MISSOURI...

CITY           SKY/WX    TMP DP  RH WIND       PRES   REMARKS
COLUMBIA       CLEAR     57  42  57 SW7       29.94R
JEFFERSON CITY CLEAR     57  43  59 CALM      29.94R
ROLLA          PTCLDY    56  42  59 NW6       29.96R
SEDALIA        CLEAR     60  46  59 SW6       29.97R
WHITEMAN AFB   PTCLDY    54  44  68 SW6       29.92R
WARRENSBURG    CLEAR     54  43  66 SW6       29.97R
OSAGE BEACH    MOCLDY    56  46  69 W5        29.98R

$$
MOZ051-052-059>065-270400-
...EAST CENTRAL MISSOURI...

CITY           SKY/WX    TMP DP  RH WIND       PRES   REMARKS
ST LOUIS INTL  MOCLDY    61  40  45 CALM      29.91R
SPIRIT OF STL  MOCLDY    52  43  71 CALM      29.90R
ST CHARLES     PTCLDY    58  42  55 W3        29.90R

$$
MOZ072>076-082>087-097>100-106>115-270400-
...SOUTH CENTRAL AND SOUTHEAST MISSOURI...

CITY           SKY/WX    TMP DP  RH WIND       PRES   REMARKS
CAPE GIRARDEAU FAIR      50  47  89 W5        29.91S
FARMINGTON     CLOUDY    53  48  83 CALM      29.94R
POPLAR BLUFF   FAIR      54  50  86 CALM      29.93R
WEST PLAINS    PTCLDY    55  47  74 W5        29.98R

$$



USA.gov is the U.S. government's official web portal to all federal, state and local government web resources and services.